Time,TemperatureF,DewpointF,PressureIn,WindDirection,WindDirectionDegrees,WindSpeedMPH,WindSpeedGustMPH,Humidity,HourlyPrecipIn,Conditions,Clouds,dailyrainin,SoftwareType,DateUTC
2013-04-16 00:05:00,38.1,25.4,30.33,ENE,72,0.0,2.0,60,0.00,CLR,,0.00,WeatherDisplay:10.37,2013-04-16 04:05:00,
2013-04-16 00:10:00,38.1,25.8,30.33,East,86,1.0,1.0,61,0.00,CLR,,0.00,WeatherDisplay:10.37,2013-04-16 04:10:00,
2013-04-16 00:15:00,38.0,25.7,30.33,East,90,0.0,1.0,61,0.00,CLR,,0.00,WeatherDisplay:10.37,2013-04-16 04:15:00,
2013-04-16 00:20:00,37.9,25.7,30.33,East,90,0.0,0.0,61,0.00,CLR,,0.00,WeatherDisplay:10.37,2013-04-16 04:20:00,
2013-04-16 00:25:00,37.9,26.1,30.33,East,90,0.0,0.0,62,0.00,CLR,,0.00,WeatherDisplay:10.37,2013-04-16 04:25:00,
2013-04-16 00:30:00,37.6,25.8,30.33,East,90,0.0,0.0,62,0.00,CLR,,0.00,WeatherDisplay:10.37,2013-04-16 04:30:00,
2013-04-16 00:35:00,37.6,25.7,30.33,East,90,0.0,0.0,62,0.00,CLR,,0.00,WeatherDisplay:10.37,2013-04-16 04:35:00,
2013-04-16 00:40:00,37.6,25.7,30.33,East,87,0.0,2.0,62,0.00,CLR,,0.00,WeatherDisplay:10.37,2013-04-16 04:40:00,
2013-04-16 00:45:00,37.4,25.9,30.33,East,81,0.0,2.0,63,0.00,CLR,,0.00,WeatherDisplay:10.37,2013-04-16 04:45:00,
2013-04-16 00:50:00,37.4,25.9,30.33,ENE,72,0.0,0.0,63,0.00,CLR,,0.00,WeatherDisplay:10.37,2013-04-16 04:50:00,
2013-04-16 00:55:00,37.2,25.8,30.33,East,79,0.0,0.0,63,0.00,CLR,,0.00,WeatherDisplay:10.37,2013-04-16 04:55:00,
2013-04-16 01:00:00,37.2,25.8,30.30,East,90,0.0,0.0,63,0.00,CLR,,0.00,WeatherDisplay:10.37,2013-04-16 05:00:00,
2013-04-16 01:05:00,37.0,26.0,30.30,East,90,1.0,2.0,64,0.00,CLR,,0.00,WeatherDisplay:10.37,2013-04-16 05:05:00,
2013-04-16 01:10:00,37.0,26.0,30.30,East,90,0.0,2.0,64,0.00,CLR,,0.00,WeatherDisplay:10.37,2013-04-16 05:10:00,
2013-04-16 01:15:00,37.0,26.4,30.30,East,88,0.0,0.0,65,0.00,CLR,,0.00,WeatherDisplay:10.37,2013-04-16 05:15:00,
2013-04-16 01:20:00,36.9,26.2,30.30,East,82,0.0,2.0,65,0.00,CLR,,0.00,WeatherDisplay:10.37,2013-04-16 05:20:00,
2013-04-16 01:25:00,36.9,26.2,30.30,ENE,77,0.0,1.0,65,0.00,CLR,,0.00,WeatherDisplay:10.37,2013-04-16 05:25:00,
2013-04-16 01:30:00,36.7,26.0,30.30,ENE,73,1.0,1.0,65,0.00,CLR,,0.00,WeatherDisplay:10.37,2013-04-16 05:30:00,
2013-04-16 01:35:00,36.7,26.0,30.30,ENE,76,0.0,1.0,65,0.00,CLR,,0.00,WeatherDisplay:10.37,2013-04-16 05:35:00,
2013-04-16 01:40:00,36.7,26.0,30.30,East,88,0.0,0.0,65,0.00,CLR,,0.00,WeatherDisplay:10.37,2013-04-16 05:40:00,
2013-04-16 01:50:00,36.5,26.2,30.30,East,90,0.0,0.0,66,0.00,CLR,,0.00,WeatherDisplay:10.37,2013-04-16 05:50:00,
2013-04-16 01:54:00,36.3,26.1,30.30,East,90,0.0,0.0,66,0.00,CLR,,0.00,WeatherDisplay:10.37,2013-04-16 05:54:00,
2013-04-16 02:00:00,36.3,26.0,30.30,East,90,0.0,0.0,66,0.00,CLR,,0.00,WeatherDisplay:10.37,2013-04-16 06:00:00,
2013-04-16 02:05:00,36.3,26.0,30.30,East,90,0.0,0.0,66,0.00,CLR,,0.00,WeatherDisplay:10.37,2013-04-16 06:05:00,
2013-04-16 02:10:00,36.1,25.9,30.30,East,90,0.0,0.0,66,0.00,CLR,,0.00,WeatherDisplay:10.37,2013-04-16 06:10:00,
2013-04-16 02:15:00,36.1,26.2,30.30,East,90,0.0,0.0,67,0.00,CLR,,0.00,WeatherDisplay:10.37,2013-04-16 06:15:00,
2013-04-16 02:20:00,36.1,26.2,30.30,East,90,0.0,0.0,67,0.00,CLR,,0.00,WeatherDisplay:10.37,2013-04-16 06:20:00,
2013-04-16 02:25:00,36.0,26.1,30.30,East,90,0.0,0.0,67,0.00,CLR,,0.00,WeatherDisplay:10.37,2013-04-16 06:25:00,
2013-04-16 02:30:00,36.0,26.4,30.30,East,90,0.0,1.0,68,0.00,CLR,,0.00,WeatherDisplay:10.37,2013-04-16 06:30:00,
2013-04-16 02:35:00,36.0,26.4,30.30,East,90,0.0,1.0,68,0.00,CLR,,0.00,WeatherDisplay:10.37,2013-04-16 06:35:00,
2013-04-16 02:40:00,35.8,26.2,30.30,East,90,0.0,1.0,68,0.00,CLR,,0.00,WeatherDisplay:10.37,2013-04-16 06:40:00,
2013-04-16 02:45:00,35.8,26.2,30.30,East,90,0.0,0.0,68,0.00,CLR,,0.00,WeatherDisplay:10.37,2013-04-16 06:45:00,
2013-04-16 02:50:00,35.8,26.6,30.30,East,90,0.0,0.0,69,0.00,CLR,,0.00,WeatherDisplay:10.37,2013-04-16 06:50:00,
2013-04-16 02:55:00,35.8,26.9,30.30,East,90,1.0,1.0,70,0.00,CLR,,0.00,WeatherDisplay:10.37,2013-04-16 06:55:00,
2013-04-16 03:00:00,35.6,26.8,30.30,East,90,0.0,1.0,70,0.00,CLR,,0.00,WeatherDisplay:10.37,2013-04-16 07:00:00,
2013-04-16 03:05:00,35.6,26.8,30.30,East,90,0.0,1.0,70,0.00,CLR,,0.00,WeatherDisplay:10.37,2013-04-16 07:05:00,
2013-04-16 03:10:00,35.6,26.8,30.30,East,90,0.0,1.0,70,0.00,CLR,,0.00,WeatherDisplay:10.37,2013-04-16 07:10:00,
2013-04-16 03:15:00,35.4,26.6,30.30,East,89,0.0,0.0,70,0.00,CLR,,0.00,WeatherDisplay:10.37,2013-04-16 07:15:00,
2013-04-16 03:25:00,35.4,26.9,30.30,ENE,68,0.0,0.0,71,0.00,CLR,,0.00,WeatherDisplay:10.37,2013-04-16 07:25:00,
2013-04-16 03:30:00,35.3,26.9,30.30,East,79,0.0,0.0,71,0.00,CLR,,0.00,WeatherDisplay:10.37,2013-04-16 07:30:00,
2013-04-16 03:35:00,35.2,26.8,30.30,East,90,0.0,0.0,71,0.00,CLR,,0.00,WeatherDisplay:10.37,2013-04-16 07:35:00,
2013-04-16 03:40:00,35.2,26.8,30.30,East,86,0.0,0.0,71,0.00,CLR,,0.00,WeatherDisplay:10.37,2013-04-16 07:40:00,
2013-04-16 03:45:00,35.2,27.1,30.30,East,82,1.0,1.0,72,0.00,CLR,,0.00,WeatherDisplay:10.37,2013-04-16 07:45:00,
2013-04-16 03:50:00,35.1,26.9,30.30,ENE,78,1.0,2.0,72,0.00,CLR,,0.00,WeatherDisplay:10.37,2013-04-16 07:50:00,
2013-04-16 03:55:00,35.1,26.9,30.30,East,79,1.0,2.0,72,0.00,CLR,,0.00,WeatherDisplay:10.37,2013-04-16 07:55:00,
2013-04-16 04:00:00,35.1,27.3,30.30,ENE,78,1.0,2.0,73,0.00,CLR,,0.00,WeatherDisplay:10.37,2013-04-16 08:00:00,
2013-04-16 04:05:00,35.1,27.3,30.30,ENE,76,1.0,2.0,73,0.00,CLR,,0.00,WeatherDisplay:10.37,2013-04-16 08:05:00,
2013-04-16 04:10:00,35.1,27.3,30.30,East,85,0.0,2.0,73,0.00,CLR,,0.00,WeatherDisplay:10.37,2013-04-16 08:10:00,
2013-04-16 04:14:00,35.1,27.3,30.30,East,79,1.0,2.0,73,0.00,CLR,,0.00,WeatherDisplay:10.37,2013-04-16 08:14:00,
2013-04-16 04:20:00,34.9,27.4,30.30,East,81,0.0,2.0,74,0.00,CLR,,0.00,WeatherDisplay:10.37,2013-04-16 08:20:00,
2013-04-16 04:24:00,34.9,27.1,30.30,East,87,1.0,2.0,73,0.00,CLR,,0.00,WeatherDisplay:10.37,2013-04-16 08:24:00,
2013-04-16 04:30:00,34.9,27.1,30.30,ENE,72,0.0,2.0,73,0.00,CLR,,0.00,WeatherDisplay:10.37,2013-04-16 08:30:00,
2013-04-16 04:35:00,34.9,27.4,30.30,ENE,73,1.0,2.0,74,0.00,CLR,,0.00,WeatherDisplay:10.37,2013-04-16 08:35:00,
2013-04-16 04:40:00,34.9,27.4,30.30,East,86,1.0,1.0,74,0.00,CLR,,0.00,WeatherDisplay:10.37,2013-04-16 08:40:00,
2013-04-16 04:45:00,34.9,27.4,30.30,ENE,75,0.0,2.0,74,0.00,CLR,,0.00,WeatherDisplay:10.37,2013-04-16 08:45:00,
2013-04-16 04:50:00,34.9,27.4,30.30,ENE,59,1.0,1.0,74,0.00,CLR,,0.00,WeatherDisplay:10.37,2013-04-16 08:50:00,
2013-04-16 04:55:00,34.9,27.4,30.30,ENE,69,1.0,2.0,74,0.00,CLR,,0.00,WeatherDisplay:10.37,2013-04-16 08:55:00,
2013-04-16 04:59:00,34.9,27.4,30.30,East,94,1.0,2.0,74,0.00,CLR,,0.00,WeatherDisplay:10.37,2013-04-16 08:59:00,
2013-04-16 05:05:00,35.1,27.9,30.30,East,98,0.0,1.0,75,0.00,CLR,,0.00,WeatherDisplay:10.37,2013-04-16 09:05:00,
2013-04-16 05:10:00,35.1,27.9,30.30,East,90,0.0,0.0,75,0.00,CLR,,0.00,WeatherDisplay:10.37,2013-04-16 09:10:00,
2013-04-16 05:15:00,35.2,28.1,30.30,East,90,0.0,0.0,75,0.00,CLR,,0.00,WeatherDisplay:10.37,2013-04-16 09:15:00,
2013-04-16 05:20:00,35.4,28.3,30.30,East,90,0.0,0.0,75,0.00,CLR,,0.00,WeatherDisplay:10.37,2013-04-16 09:20:00,
2013-04-16 05:25:00,35.4,28.3,30.30,East,90,0.0,0.0,75,0.00,CLR,,0.00,WeatherDisplay:10.37,2013-04-16 09:25:00,
2013-04-16 05:30:00,35.4,28.3,30.30,East,90,0.0,0.0,75,0.00,CLR,,0.00,WeatherDisplay:10.37,2013-04-16 09:30:00,
2013-04-16 05:35:00,35.4,28.3,30.30,East,90,0.0,0.0,75,0.00,CLR,,0.00,WeatherDisplay:10.37,2013-04-16 09:35:00,
2013-04-16 05:40:00,35.4,28.3,30.30,East,90,0.0,0.0,75,0.00,CLR,,0.00,WeatherDisplay:10.37,2013-04-16 09:40:00,
2013-04-16 05:45:00,35.4,28.3,30.30,East,90,0.0,0.0,75,0.00,CLR,,0.00,WeatherDisplay:10.37,2013-04-16 09:45:00,
2013-04-16 05:50:00,35.2,28.1,30.30,East,90,0.0,0.0,75,0.00,CLR,,0.00,WeatherDisplay:10.37,2013-04-16 09:50:00,
2013-04-16 05:55:00,35.2,28.1,30.30,East,90,0.0,0.0,75,0.00,CLR,,0.00,WeatherDisplay:10.37,2013-04-16 09:55:00,
2013-04-16 05:59:00,35.2,28.1,30.30,East,90,1.0,2.0,75,0.00,CLR,,0.00,WeatherDisplay:10.37,2013-04-16 09:59:00,
2013-04-16 06:05:00,35.2,28.1,30.30,East,90,1.0,1.0,75,0.00,CLR,,0.00,WeatherDisplay:10.37,2013-04-16 10:05:00,
2013-04-16 06:10:00,35.1,27.9,30.30,East,79,1.0,2.0,75,0.00,CLR,,0.00,WeatherDisplay:10.37,2013-04-16 10:10:00,
2013-04-16 06:14:00,35.1,28.3,30.30,East,82,1.0,2.0,76,0.00,CLR,,0.00,WeatherDisplay:10.37,2013-04-16 10:14:00,
2013-04-16 06:20:00,35.1,28.3,30.30,East,83,2.0,2.0,76,0.00,CLR,,0.00,WeatherDisplay:10.37,2013-04-16 10:20:00,
2013-04-16 06:25:00,35.1,28.3,30.30,East,85,0.0,2.0,76,0.00,CLR,,0.00,WeatherDisplay:10.37,2013-04-16 10:25:00,
2013-04-16 06:30:00,35.2,28.4,30.30,East,90,2.0,2.0,76,0.00,CLR,,0.00,WeatherDisplay:10.37,2013-04-16 10:30:00,
2013-04-16 06:35:00,35.2,28.4,30.30,East,88,1.0,2.0,76,0.00,CLR,,0.00,WeatherDisplay:10.37,2013-04-16 10:35:00,
2013-04-16 06:40:00,35.2,28.4,30.30,East,87,1.0,1.0,76,0.00,CLR,,0.00,WeatherDisplay:10.37,2013-04-16 10:40:00,
2013-04-16 06:45:00,35.2,28.4,30.30,East,90,0.0,1.0,76,0.00,CLR,,0.00,WeatherDisplay:10.37,2013-04-16 10:45:00,
2013-04-16 06:50:00,35.2,28.8,30.30,East,93,0.0,0.0,77,0.00,CLR,,0.00,WeatherDisplay:10.37,2013-04-16 10:50:00,
2013-04-16 06:55:00,35.4,28.9,30.30,East,95,1.0,2.0,77,0.00,CLR,,0.00,WeatherDisplay:10.37,2013-04-16 10:55:00,
2013-04-16 06:59:00,35.4,28.9,30.30,East,90,0.0,2.0,77,0.00,CLR,,0.00,WeatherDisplay:10.37,2013-04-16 10:59:00,
2013-04-16 07:05:00,35.6,29.1,30.30,East,84,1.0,2.0,77,0.00,CLR,,0.00,WeatherDisplay:10.37,2013-04-16 11:05:00,
2013-04-16 07:10:00,35.6,29.1,30.30,East,84,1.0,2.0,77,0.00,CLR,,0.00,WeatherDisplay:10.37,2013-04-16 11:10:00,
2013-04-16 07:14:00,35.8,29.3,30.30,East,95,1.0,1.0,77,0.00,CLR,,0.00,WeatherDisplay:10.37,2013-04-16 11:14:00,
2013-04-16 07:20:00,36.1,29.9,30.30,ESE,122,0.0,1.0,78,0.00,CLR,,0.00,WeatherDisplay:10.37,2013-04-16 11:20:00,
2013-04-16 07:25:00,36.3,30.1,30.30,SE,124,1.0,1.0,78,0.00,CLR,,0.00,WeatherDisplay:10.37,2013-04-16 11:25:00,
2013-04-16 07:30:00,37.1,31.2,30.30,East,95,1.0,1.0,79,0.00,CLR,,0.00,WeatherDisplay:10.37,2013-04-16 11:30:00,
2013-04-16 07:34:00,37.6,31.7,30.30,East,94,0.0,1.0,79,0.00,CLR,,0.00,WeatherDisplay:10.37,2013-04-16 11:34:00,
2013-04-16 07:39:00,38.5,32.8,30.30,SE,129,1.0,1.0,80,0.00,CLR,,0.00,WeatherDisplay:10.37,2013-04-16 11:39:00,
2013-04-16 07:44:00,39.4,34.0,30.30,SSE,160,0.0,1.0,81,0.00,CLR,,0.00,WeatherDisplay:10.37,2013-04-16 11:44:00,
2013-04-16 07:50:00,40.4,35.3,30.30,SW,214,0.0,1.0,82,0.00,CLR,,0.00,WeatherDisplay:10.37,2013-04-16 11:50:00,
2013-04-16 07:55:00,41.3,36.2,30.30,WSW,237,0.0,0.0,82,0.00,CLR,,0.00,WeatherDisplay:10.37,2013-04-16 11:55:00,
2013-04-16 08:09:00,43.5,38.1,30.30,WSW,247,1.0,1.0,81,0.00,CLR,,0.00,WeatherDisplay:10.37,2013-04-16 12:09:00,
2013-04-16 08:14:00,44.4,38.6,30.30,SW,226,1.0,2.0,80,0.00,CLR,,0.00,WeatherDisplay:10.37,2013-04-16 12:14:00,
2013-04-16 08:19:00,45.0,38.8,30.30,SSW,208,1.0,1.0,79,0.00,CLR,,0.00,WeatherDisplay:10.37,2013-04-16 12:19:00,
2013-04-16 08:24:00,45.9,39.5,30.30,South,191,2.0,2.0,78,0.00,CLR,,0.00,WeatherDisplay:10.37,2013-04-16 12:24:00,
2013-04-16 08:30:00,46.4,39.6,30.30,South,191,1.0,2.0,77,0.00,CLR,,0.00,WeatherDisplay:10.37,2013-04-16 12:30:00,
2013-04-16 08:34:00,46.9,40.1,30.30,South,173,0.0,4.0,77,0.00,CLR,,0.00,WeatherDisplay:10.37,2013-04-16 12:34:00,
2013-04-16 08:40:00,47.5,40.3,30.30,SSE,166,1.0,1.0,76,0.00,CLR,,0.00,WeatherDisplay:10.37,2013-04-16 12:40:00,
2013-04-16 08:45:00,48.0,40.8,30.30,SSW,193,1.0,1.0,76,0.00,CLR,,0.00,WeatherDisplay:10.37,2013-04-16 12:45:00,
2013-04-16 08:50:00,48.7,41.1,30.30,WSW,246,2.0,4.0,75,0.00,CLR,,0.00,WeatherDisplay:10.37,2013-04-16 12:50:00,
2013-04-16 08:55:00,49.0,41.4,30.30,WSW,247,1.0,3.0,75,0.00,CLR,,0.00,WeatherDisplay:10.37,2013-04-16 12:55:00,
2013-04-16 08:59:00,49.5,41.9,30.30,West,271,2.0,5.0,75,0.00,CLR,,0.00,WeatherDisplay:10.37,2013-04-16 12:59:00,
2013-04-16 09:04:00,50.0,42.0,30.30,WSW,238,1.0,2.0,74,0.00,CLR,,0.00,WeatherDisplay:10.37,2013-04-16 13:04:00,
2013-04-16 09:10:00,50.4,42.4,30.30,South,178,1.0,3.0,74,0.00,CLR,,0.00,WeatherDisplay:10.37,2013-04-16 13:10:00,
2013-04-16 09:14:00,50.7,42.4,30.30,WSW,248,2.0,5.0,73,0.00,CLR,,0.00,WeatherDisplay:10.37,2013-04-16 13:14:00,
2013-04-16 09:20:00,51.1,42.4,30.30,WNW,300,6.0,6.0,72,0.00,CLR,,0.00,WeatherDisplay:10.37,2013-04-16 13:20:00,
2013-04-16 09:24:00,51.5,42.8,30.30,WSW,257,1.0,6.0,72,0.00,CLR,,0.00,WeatherDisplay:10.37,2013-04-16 13:24:00,
2013-04-16 09:30:00,51.8,42.7,30.30,SSW,203,1.0,3.0,71,0.00,CLR,,0.00,WeatherDisplay:10.37,2013-04-16 13:30:00,
2013-04-16 09:35:00,52.2,43.0,30.30,SSW,204,3.0,3.0,71,0.00,CLR,,0.00,WeatherDisplay:10.37,2013-04-16 13:35:00,
2013-04-16 09:40:00,52.3,42.8,30.30,South,176,2.0,6.0,70,0.00,CLR,,0.00,WeatherDisplay:10.37,2013-04-16 13:40:00,
2013-04-16 09:44:00,52.7,43.2,30.30,SE,134,2.0,3.0,70,0.00,CLR,,0.00,WeatherDisplay:10.37,2013-04-16 13:44:00,
2013-04-16 09:50:00,53.0,43.1,30.30,SW,223,2.0,8.0,69,0.00,CLR,,0.00,WeatherDisplay:10.37,2013-04-16 13:50:00,
2013-04-16 09:54:00,53.1,43.2,30.30,West,261,7.0,9.0,69,0.00,CLR,,0.00,WeatherDisplay:10.37,2013-04-16 13:54:00,
2013-04-16 09:59:00,53.6,43.3,30.30,SW,223,2.0,6.0,68,0.00,CLR,,0.00,WeatherDisplay:10.37,2013-04-16 13:59:00,
2013-04-16 10:04:00,54.1,43.8,30.30,WSW,239,5.0,8.0,68,0.00,CLR,,0.00,WeatherDisplay:10.37,2013-04-16 14:04:00,
2013-04-16 10:09:00,54.7,44.3,30.30,SW,233,3.0,4.0,68,0.00,CLR,,0.00,WeatherDisplay:10.37,2013-04-16 14:09:00,
2013-04-16 10:14:00,54.7,43.9,30.30,SSW,200,5.0,6.0,67,0.00,CLR,,0.00,WeatherDisplay:10.37,2013-04-16 14:14:00,
2013-04-16 10:20:00,54.9,44.1,30.30,SW,218,3.0,6.0,67,0.00,CLR,,0.00,WeatherDisplay:10.37,2013-04-16 14:20:00,
2013-04-16 10:24:00,55.0,43.9,30.30,West,268,2.0,4.0,66,0.00,CLR,,0.00,WeatherDisplay:10.37,2013-04-16 14:24:00,
2013-04-16 10:29:00,55.2,44.1,30.30,West,274,2.0,4.0,66,0.00,CLR,,0.00,WeatherDisplay:10.37,2013-04-16 14:29:00,
2013-04-16 10:34:00,55.6,44.0,30.30,SW,229,2.0,7.0,65,0.00,CLR,,0.00,WeatherDisplay:10.37,2013-04-16 14:34:00,
2013-04-16 10:39:00,55.8,44.2,30.30,SW,219,3.0,5.0,65,0.00,CLR,,0.00,WeatherDisplay:10.37,2013-04-16 14:39:00,
2013-04-16 10:44:00,55.9,44.3,30.30,SSW,207,2.0,7.0,65,0.00,CLR,,0.00,WeatherDisplay:10.37,2013-04-16 14:44:00,
2013-04-16 10:49:00,56.1,44.5,30.30,South,178,2.0,7.0,65,0.00,CLR,,0.00,WeatherDisplay:10.37,2013-04-16 14:49:00,
2013-04-16 10:54:00,56.4,44.3,30.30,SSW,193,5.0,6.0,64,0.00,CLR,,0.00,WeatherDisplay:10.37,2013-04-16 14:54:00,
2013-04-16 10:59:00,56.8,44.8,30.30,WSW,239,2.0,5.0,64,0.00,CLR,,0.00,WeatherDisplay:10.37,2013-04-16 14:59:00,
2013-04-16 11:04:00,56.8,44.8,30.30,WSW,254,5.0,6.0,64,0.00,CLR,,0.00,WeatherDisplay:10.37,2013-04-16 15:04:00,
2013-04-16 11:09:00,57.0,44.5,30.30,SW,229,6.0,9.0,63,0.00,CLR,,0.00,WeatherDisplay:10.37,2013-04-16 15:09:00,
2013-04-16 11:14:00,57.2,44.7,30.27,SW,230,6.0,6.0,63,0.00,CLR,,0.00,WeatherDisplay:10.37,2013-04-16 15:14:00,
2013-04-16 11:19:00,57.3,44.8,30.27,South,183,2.0,6.0,63,0.00,CLR,,0.00,WeatherDisplay:10.37,2013-04-16 15:19:00,
2013-04-16 11:25:00,57.6,44.6,30.27,SSW,197,2.0,7.0,62,0.00,CLR,,0.00,WeatherDisplay:10.37,2013-04-16 15:25:00,
2013-04-16 11:30:00,57.7,44.8,30.27,SSW,195,5.0,6.0,62,0.00,CLR,,0.00,WeatherDisplay:10.37,2013-04-16 15:30:00,
2013-04-16 11:34:00,57.7,44.8,30.27,SSW,196,5.0,7.0,62,0.00,CLR,,0.00,WeatherDisplay:10.37,2013-04-16 15:34:00,
2013-04-16 11:40:00,57.7,44.4,30.27,SSW,194,3.0,7.0,61,0.00,CLR,,0.00,WeatherDisplay:10.37,2013-04-16 15:40:00,
2013-04-16 11:44:00,57.9,44.5,30.27,South,175,3.0,5.0,61,0.00,CLR,,0.00,WeatherDisplay:10.37,2013-04-16 15:44:00,
2013-04-16 11:50:00,58.0,44.6,30.27,SSW,209,3.0,6.0,61,0.00,CLR,,0.00,WeatherDisplay:10.37,2013-04-16 15:50:00,
2013-04-16 11:54:00,58.1,44.7,30.27,SW,226,3.0,6.0,61,0.00,CLR,,0.00,WeatherDisplay:10.37,2013-04-16 15:54:00,
2013-04-16 11:59:00,58.5,45.1,30.27,SSW,193,3.0,6.0,61,0.00,CLR,,0.00,WeatherDisplay:10.37,2013-04-16 15:59:00,
2013-04-16 12:04:00,58.6,44.8,30.27,SSW,198,5.0,5.0,60,0.00,CLR,,0.00,WeatherDisplay:10.37,2013-04-16 16:04:00,
2013-04-16 12:09:00,58.8,45.0,30.27,West,267,3.0,6.0,60,0.00,CLR,,0.00,WeatherDisplay:10.37,2013-04-16 16:09:00,
2013-04-16 12:14:00,59.0,45.1,30.27,South,180,2.0,6.0,60,0.00,CLR,,0.00,WeatherDisplay:10.37,2013-04-16 16:14:00,
2013-04-16 12:19:00,59.3,45.4,30.27,SSE,149,1.0,5.0,60,0.00,CLR,,0.00,WeatherDisplay:10.37,2013-04-16 16:19:00,
2013-04-16 12:24:00,59.4,45.0,30.27,SW,220,3.0,5.0,59,0.00,CLR,,0.00,WeatherDisplay:10.37,2013-04-16 16:24:00,
2013-04-16 12:30:00,59.5,45.2,30.24,South,173,1.0,8.0,59,0.00,CLR,,0.00,WeatherDisplay:10.37,2013-04-16 16:30:00,
2013-04-16 12:34:00,59.7,45.4,30.24,SSE,161,3.0,5.0,59,0.00,CLR,,0.00,WeatherDisplay:10.37,2013-04-16 16:34:00,
2013-04-16 12:40:00,59.9,45.5,30.24,SSW,194,2.0,5.0,59,0.00,CLR,,0.00,WeatherDisplay:10.37,2013-04-16 16:40:00,
2013-04-16 12:45:00,59.9,45.6,30.24,South,190,5.0,6.0,59,0.00,CLR,,0.00,WeatherDisplay:10.37,2013-04-16 16:45:00,
2013-04-16 12:50:00,60.1,45.7,30.24,SSE,153,5.0,6.0,59,0.00,CLR,,0.00,WeatherDisplay:10.37,2013-04-16 16:50:00,
2013-04-16 12:54:00,60.1,45.7,30.24,SSE,152,3.0,6.0,59,0.00,CLR,,0.00,WeatherDisplay:10.37,2013-04-16 16:54:00,
2013-04-16 12:59:00,60.3,45.9,30.24,WSW,247,5.0,10.0,59,0.00,CLR,,0.00,WeatherDisplay:10.37,2013-04-16 16:59:00,
2013-04-16 13:04:00,60.3,45.9,30.24,WSW,246,5.0,6.0,59,0.00,CLR,,0.00,WeatherDisplay:10.37,2013-04-16 17:04:00,
2013-04-16 13:10:00,60.6,46.2,30.24,South,184,3.0,8.0,59,0.00,CLR,,0.00,WeatherDisplay:10.37,2013-04-16 17:10:00,
2013-04-16 13:14:00,61.0,46.1,30.24,SSW,197,2.0,8.0,58,0.00,CLR,,0.00,WeatherDisplay:10.37,2013-04-16 17:14:00,
2013-04-16 13:19:00,61.0,46.1,30.24,South,174,3.0,6.0,58,0.00,CLR,,0.00,WeatherDisplay:10.37,2013-04-16 17:19:00,
2013-04-16 13:24:00,61.2,46.3,30.24,South,173,3.0,5.0,58,0.00,CLR,,0.00,WeatherDisplay:10.37,2013-04-16 17:24:00,
2013-04-16 13:30:00,61.2,46.3,30.24,SSW,212,3.0,4.0,58,0.00,CLR,,0.00,WeatherDisplay:10.37,2013-04-16 17:30:00,
2013-04-16 13:34:00,61.2,45.8,30.24,West,274,2.0,6.0,57,0.00,CLR,,0.00,WeatherDisplay:10.37,2013-04-16 17:34:00,
2013-04-16 13:39:00,61.3,46.4,30.24,SSE,148,5.0,6.0,58,0.00,CLR,,0.00,WeatherDisplay:10.37,2013-04-16 17:39:00,
2013-04-16 13:44:00,61.5,46.6,30.24,South,188,3.0,5.0,58,0.00,CLR,,0.00,WeatherDisplay:10.37,2013-04-16 17:44:00,
2013-04-16 13:50:00,61.6,46.7,30.24,SSW,203,3.0,7.0,58,0.00,CLR,,0.00,WeatherDisplay:10.37,2013-04-16 17:50:00,
2013-04-16 13:54:00,61.7,46.8,30.24,South,176,3.0,6.0,58,0.00,CLR,,0.00,WeatherDisplay:10.37,2013-04-16 17:54:00,
2013-04-16 13:59:00,61.8,46.9,30.21,SW,229,5.0,5.0,58,0.00,CLR,,0.00,WeatherDisplay:10.37,2013-04-16 17:59:00,
2013-04-16 14:04:00,62.0,46.5,30.21,SW,214,3.0,6.0,57,0.00,CLR,,0.00,WeatherDisplay:10.37,2013-04-16 18:04:00,
2013-04-16 14:10:00,61.9,46.5,30.21,SSW,209,2.0,5.0,57,0.00,CLR,,0.00,WeatherDisplay:10.37,2013-04-16 18:10:00,
2013-04-16 14:14:00,62.2,47.3,30.21,WSW,250,2.0,8.0,58,0.00,CLR,,0.00,WeatherDisplay:10.37,2013-04-16 18:14:00,
2013-04-16 14:20:00,62.4,47.0,30.21,South,182,3.0,5.0,57,0.00,CLR,,0.00,WeatherDisplay:10.37,2013-04-16 18:20:00,
2013-04-16 14:24:00,62.2,46.8,30.21,NW,309,7.0,7.0,57,0.00,CLR,,0.00,WeatherDisplay:10.37,2013-04-16 18:24:00,
2013-04-16 14:30:00,62.4,47.0,30.21,NW,315,6.0,8.0,57,0.00,CLR,,0.00,WeatherDisplay:10.37,2013-04-16 18:30:00,
2013-04-16 14:34:00,62.8,47.3,30.21,WSW,256,2.0,8.0,57,0.00,CLR,,0.00,WeatherDisplay:10.37,2013-04-16 18:34:00,
2013-04-16 14:39:00,62.8,46.8,30.21,SSW,206,5.0,8.0,56,0.00,CLR,,0.00,WeatherDisplay:10.37,2013-04-16 18:39:00,
2013-04-16 14:44:00,62.4,47.0,30.21,SSW,211,2.0,6.0,57,0.00,CLR,,0.00,WeatherDisplay:10.37,2013-04-16 18:44:00,
2013-04-16 14:50:00,62.1,46.6,30.21,SSW,193,3.0,8.0,57,0.00,CLR,,0.00,WeatherDisplay:10.37,2013-04-16 18:50:00,
2013-04-16 14:54:00,62.1,46.6,30.21,South,173,3.0,6.0,57,0.00,CLR,,0.00,WeatherDisplay:10.37,2013-04-16 18:54:00,
2013-04-16 14:59:00,62.4,47.0,30.21,SSW,207,3.0,7.0,57,0.00,CLR,,0.00,WeatherDisplay:10.37,2013-04-16 18:59:00,
2013-04-16 15:04:00,62.7,47.2,30.21,SW,215,5.0,7.0,57,0.00,CLR,,0.00,WeatherDisplay:10.37,2013-04-16 19:04:00,
2013-04-16 15:09:00,62.4,47.0,30.21,SW,215,7.0,9.0,57,0.00,CLR,,0.00,WeatherDisplay:10.37,2013-04-16 19:09:00,
2013-04-16 15:14:00,62.2,46.8,30.21,SSW,202,3.0,8.0,57,0.00,CLR,,0.00,WeatherDisplay:10.37,2013-04-16 19:14:00,
2013-04-16 15:20:00,62.2,46.8,30.21,SSW,208,3.0,5.0,57,0.00,CLR,,0.00,WeatherDisplay:10.37,2013-04-16 19:20:00,
2013-04-16 15:24:00,62.4,47.0,30.21,SW,227,5.0,5.0,57,0.00,CLR,,0.00,WeatherDisplay:10.37,2013-04-16 19:24:00,
2013-04-16 15:30:00,62.2,46.8,30.21,SW,223,3.0,5.0,57,0.00,CLR,,0.00,WeatherDisplay:10.37,2013-04-16 19:30:00,
2013-04-16 15:34:00,61.7,46.8,30.21,SW,223,7.0,12.0,58,0.00,CLR,,0.00,WeatherDisplay:10.37,2013-04-16 19:34:00,
2013-04-16 15:39:00,61.9,46.9,30.21,SSW,195,5.0,6.0,58,0.00,CLR,,0.00,WeatherDisplay:10.37,2013-04-16 19:39:00,
2013-04-16 15:44:00,61.9,46.9,30.18,SW,214,6.0,13.0,58,0.00,CLR,,0.00,WeatherDisplay:10.37,2013-04-16 19:44:00,
2013-04-16 15:49:00,61.7,46.8,30.18,SW,224,3.0,5.0,58,0.00,CLR,,0.00,WeatherDisplay:10.37,2013-04-16 19:49:00,
2013-04-16 15:54:00,61.7,47.2,30.18,SSW,211,3.0,6.0,59,0.00,CLR,,0.00,WeatherDisplay:10.37,2013-04-16 19:54:00,
2013-04-16 15:59:00,61.5,47.1,30.18,South,182,3.0,8.0,59,0.00,CLR,,0.00,WeatherDisplay:10.37,2013-04-16 19:59:00,
2013-04-16 16:04:00,61.3,46.9,30.18,SSW,203,1.0,5.0,59,0.00,CLR,,0.00,WeatherDisplay:10.37,2013-04-16 20:04:00,
2013-04-16 16:10:00,61.0,46.5,30.18,WSW,238,6.0,6.0,59,0.00,CLR,,0.00,WeatherDisplay:10.37,2013-04-16 20:10:00,
2013-04-16 16:14:00,60.8,46.8,30.15,South,174,7.0,8.0,60,0.00,CLR,,0.00,WeatherDisplay:10.37,2013-04-16 20:14:00,
2013-04-16 16:20:00,60.4,46.9,30.15,SSW,192,5.0,5.0,61,0.00,CLR,,0.00,WeatherDisplay:10.37,2013-04-16 20:20:00,
2013-04-16 16:24:00,60.1,46.6,30.15,South,183,2.0,7.0,61,0.00,CLR,,0.00,WeatherDisplay:10.37,2013-04-16 20:24:00,
2013-04-16 16:30:00,59.9,46.4,30.15,SSE,157,1.0,3.0,61,0.00,CLR,,0.00,WeatherDisplay:10.37,2013-04-16 20:30:00,
2013-04-16 16:34:00,59.7,46.7,30.15,South,185,3.0,4.0,62,0.00,CLR,,0.00,WeatherDisplay:10.37,2013-04-16 20:34:00,
2013-04-16 16:39:00,59.7,47.1,30.15,South,191,2.0,6.0,63,0.00,CLR,,0.00,WeatherDisplay:10.37,2013-04-16 20:39:00,
2013-04-16 16:44:00,59.7,47.1,30.15,WSW,240,2.0,6.0,63,0.00,CLR,,0.00,WeatherDisplay:10.37,2013-04-16 20:44:00,
2013-04-16 16:49:00,59.5,46.9,30.15,WSW,238,0.0,4.0,63,0.00,CLR,,0.00,WeatherDisplay:10.37,2013-04-16 20:49:00,
2013-04-16 16:54:00,59.4,46.8,30.15,SW,221,3.0,5.0,63,0.00,CLR,,0.00,WeatherDisplay:10.37,2013-04-16 20:54:00,
2013-04-16 16:59:00,59.0,46.8,30.15,WSW,246,3.0,17.0,64,0.00,CLR,,0.00,WeatherDisplay:10.37,2013-04-16 20:59:00,
2013-04-16 17:04:00,59.0,46.8,30.15,SW,224,3.0,6.0,64,0.00,CLR,,0.00,WeatherDisplay:10.37,2013-04-16 21:04:00,
2013-04-16 17:09:00,59.0,46.8,30.15,South,188,6.0,7.0,64,0.00,CLR,,0.00,WeatherDisplay:10.37,2013-04-16 21:09:00,
2013-04-16 17:14:00,59.2,47.4,30.15,South,172,2.0,3.0,65,0.00,CLR,,0.00,WeatherDisplay:10.37,2013-04-16 21:14:00,
2013-04-16 17:19:00,59.0,47.2,30.15,SSW,210,2.0,10.0,65,0.00,CLR,,0.00,WeatherDisplay:10.37,2013-04-16 21:19:00,
2013-04-16 17:24:00,59.0,47.2,30.15,SW,222,1.0,6.0,65,0.00,CLR,,0.00,WeatherDisplay:10.37,2013-04-16 21:24:00,
2013-04-16 17:29:00,59.2,47.8,30.15,SSW,212,5.0,10.0,66,0.00,CLR,,0.00,WeatherDisplay:10.37,2013-04-16 21:29:00,
2013-04-16 17:34:00,59.0,47.7,30.15,SSW,206,2.0,6.0,66,0.00,CLR,,0.00,WeatherDisplay:10.37,2013-04-16 21:34:00,
2013-04-16 17:40:00,59.0,47.7,30.15,South,190,1.0,3.0,66,0.00,CLR,,0.00,WeatherDisplay:10.37,2013-04-16 21:40:00,
2013-04-16 17:44:00,58.8,47.5,30.15,SSE,168,2.0,3.0,66,0.00,CLR,,0.00,WeatherDisplay:10.37,2013-04-16 21:44:00,
2013-04-16 17:49:00,58.3,47.4,30.15,SSE,156,6.0,6.0,67,0.00,CLR,,0.00,WeatherDisplay:10.37,2013-04-16 21:49:00,
2013-04-16 17:54:00,58.1,47.2,30.15,South,176,2.0,6.0,67,0.00,CLR,,0.00,WeatherDisplay:10.37,2013-04-16 21:54:00,
2013-04-16 17:59:00,58.1,47.2,30.12,South,182,6.0,6.0,67,0.00,CLR,,0.00,WeatherDisplay:10.37,2013-04-16 21:59:00,
2013-04-16 18:04:00,58.1,47.6,30.12,South,183,2.0,6.0,68,0.00,CLR,,0.00,WeatherDisplay:10.37,2013-04-16 22:04:00,
2013-04-16 18:09:00,58.3,47.8,30.12,WNW,285,3.0,4.0,68,0.00,CLR,,0.00,WeatherDisplay:10.37,2013-04-16 22:09:00,
2013-04-16 18:14:00,58.1,47.6,30.09,West,263,0.0,4.0,68,0.00,CLR,,0.00,WeatherDisplay:10.37,2013-04-16 22:14:00,
2013-04-16 18:19:00,57.9,47.4,30.09,SSW,213,6.0,6.0,68,0.00,CLR,,0.00,WeatherDisplay:10.37,2013-04-16 22:19:00,
2013-04-16 18:24:00,57.9,47.4,30.09,SSW,202,6.0,6.0,68,0.00,CLR,,0.00,WeatherDisplay:10.37,2013-04-16 22:24:00,
2013-04-16 18:29:00,57.6,47.5,30.09,South,186,2.0,6.0,69,0.00,CLR,,0.00,WeatherDisplay:10.37,2013-04-16 22:29:00,
2013-04-16 18:34:00,57.4,47.3,30.09,SSE,164,1.0,2.0,69,0.00,CLR,,0.00,WeatherDisplay:10.37,2013-04-16 22:34:00,
2013-04-16 18:40:00,57.4,47.3,30.09,South,191,2.0,3.0,69,0.00,CLR,,0.00,WeatherDisplay:10.37,2013-04-16 22:40:00,
2013-04-16 18:49:00,56.8,47.2,30.09,SSW,196,2.0,3.0,70,0.00,CLR,,0.00,WeatherDisplay:10.37,2013-04-16 22:49:00,
2013-04-16 18:54:00,56.7,47.4,30.09,WSW,243,6.0,6.0,71,0.00,CLR,,0.00,WeatherDisplay:10.37,2013-04-16 22:54:00,
2013-04-16 18:59:00,56.7,47.4,30.09,WNW,284,3.0,6.0,71,0.00,CLR,,0.00,WeatherDisplay:10.37,2013-04-16 22:59:00,
2013-04-16 19:04:00,56.3,47.0,30.09,West,271,2.0,5.0,71,0.00,CLR,,0.00,WeatherDisplay:10.37,2013-04-16 23:04:00,
2013-04-16 19:09:00,56.3,47.0,30.09,SW,220,2.0,8.0,71,0.00,CLR,,0.00,WeatherDisplay:10.37,2013-04-16 23:09:00,
2013-04-16 19:14:00,56.1,47.2,30.09,SSW,212,6.0,6.0,72,0.00,CLR,,0.00,WeatherDisplay:10.37,2013-04-16 23:14:00,
2013-04-16 19:19:00,55.9,47.0,30.09,SW,233,6.0,6.0,72,0.00,CLR,,0.00,WeatherDisplay:10.37,2013-04-16 23:19:00,
2013-04-16 19:24:00,55.9,47.0,30.09,SSW,203,2.0,8.0,72,0.00,CLR,,0.00,WeatherDisplay:10.37,2013-04-16 23:24:00,
2013-04-16 19:30:00,55.8,46.9,30.09,SSW,195,1.0,3.0,72,0.00,CLR,,0.00,WeatherDisplay:10.37,2013-04-16 23:30:00,
2013-04-16 19:34:00,55.6,46.7,30.09,SW,221,3.0,4.0,72,0.00,CLR,,0.00,WeatherDisplay:10.37,2013-04-16 23:34:00,
2013-04-16 19:39:00,55.6,46.7,30.09,SW,219,1.0,4.0,72,0.00,CLR,,0.00,WeatherDisplay:10.37,2013-04-16 23:39:00,
2013-04-16 19:44:00,55.4,46.5,30.06,SSW,213,1.0,1.0,72,0.00,CLR,,0.00,WeatherDisplay:10.37,2013-04-16 23:44:00,
2013-04-16 19:49:00,55.2,46.7,30.06,WSW,255,6.0,6.0,73,0.00,CLR,,0.00,WeatherDisplay:10.37,2013-04-16 23:49:00,
2013-04-16 19:54:00,55.0,46.5,30.06,WSW,254,2.0,6.0,73,0.00,CLR,,0.00,WeatherDisplay:10.37,2013-04-16 23:54:00,
2013-04-16 19:59:00,55.0,46.5,30.06,WSW,255,1.0,3.0,73,0.00,CLR,,0.00,WeatherDisplay:10.37,2013-04-16 23:59:00,
2013-04-16 20:04:00,54.9,46.4,30.06,South,183,2.0,6.0,73,0.00,CLR,,0.00,WeatherDisplay:10.37,2013-04-17 00:04:00,
2013-04-16 20:10:00,54.9,46.4,30.06,SSW,213,1.0,2.0,73,0.00,CLR,,0.00,WeatherDisplay:10.37,2013-04-17 00:10:00,
2013-04-16 20:14:00,54.9,46.4,30.09,WSW,239,2.0,2.0,73,0.00,CLR,,0.00,WeatherDisplay:10.37,2013-04-17 00:14:00,
2013-04-16 20:20:00,54.7,46.6,30.09,WSW,251,1.0,2.0,74,0.00,CLR,,0.00,WeatherDisplay:10.37,2013-04-17 00:20:00,
2013-04-16 20:24:00,54.7,46.6,30.09,West,260,0.0,1.0,74,0.00,CLR,,0.00,WeatherDisplay:10.37,2013-04-17 00:24:00,
2013-04-16 20:30:00,54.7,46.6,30.09,South,177,1.0,2.0,74,0.00,CLR,,0.00,WeatherDisplay:10.37,2013-04-17 00:30:00,
2013-04-16 20:34:00,54.7,46.6,30.09,SSW,204,1.0,5.0,74,0.00,CLR,,0.00,WeatherDisplay:10.37,2013-04-17 00:34:00,
2013-04-16 20:40:00,54.7,46.6,30.09,SW,223,1.0,3.0,74,0.00,CLR,,0.00,WeatherDisplay:10.37,2013-04-17 00:40:00,
2013-04-16 20:50:00,54.7,46.6,30.09,South,191,2.0,6.0,74,0.00,CLR,,0.00,WeatherDisplay:10.37,2013-04-17 00:50:00,
2013-04-16 20:54:00,54.7,46.6,30.09,SW,234,1.0,3.0,74,0.00,CLR,,0.00,WeatherDisplay:10.37,2013-04-17 00:54:00,
2013-04-16 20:59:00,54.7,46.6,30.09,WSW,246,1.0,5.0,74,0.00,CLR,,0.00,WeatherDisplay:10.37,2013-04-17 00:59:00,
2013-04-16 21:04:00,54.7,46.6,30.09,WSW,249,2.0,3.0,74,0.00,CLR,,0.00,WeatherDisplay:10.37,2013-04-17 01:04:00,
2013-04-16 21:09:00,54.7,46.6,30.09,WSW,237,6.0,6.0,74,0.00,CLR,,0.00,WeatherDisplay:10.37,2013-04-17 01:09:00,
2013-04-16 21:14:00,54.7,46.6,30.09,SW,219,2.0,6.0,74,0.00,CLR,,0.00,WeatherDisplay:10.37,2013-04-17 01:14:00,
2013-04-16 21:19:00,54.7,46.6,30.09,SSW,199,2.0,3.0,74,0.00,CLR,,0.00,WeatherDisplay:10.37,2013-04-17 01:19:00,
2013-04-16 21:24:00,54.7,46.6,30.09,South,170,1.0,5.0,74,0.00,CLR,,0.00,WeatherDisplay:10.37,2013-04-17 01:24:00,
2013-04-16 21:29:00,54.7,46.6,30.09,SSE,168,2.0,5.0,74,0.00,CLR,,0.00,WeatherDisplay:10.37,2013-04-17 01:29:00,
2013-04-16 21:34:00,54.9,46.7,30.09,SW,215,3.0,6.0,74,0.00,CLR,,0.00,WeatherDisplay:10.37,2013-04-17 01:34:00,
2013-04-16 21:39:00,54.9,46.7,30.09,SW,223,0.0,4.0,74,0.00,CLR,,0.00,WeatherDisplay:10.37,2013-04-17 01:39:00,
2013-04-16 21:44:00,54.9,46.7,30.09,South,190,0.0,2.0,74,0.00,CLR,,0.00,WeatherDisplay:10.37,2013-04-17 01:44:00,
2013-04-16 21:50:00,54.9,46.7,30.09,SW,227,2.0,2.0,74,0.00,CLR,,0.00,WeatherDisplay:10.37,2013-04-17 01:50:00,
2013-04-16 21:59:00,54.9,46.7,30.09,SSW,213,3.0,4.0,74,0.00,CLR,,0.00,WeatherDisplay:10.37,2013-04-17 01:59:00,
2013-04-16 22:04:00,54.9,46.7,30.09,South,181,1.0,4.0,74,0.00,CLR,,0.00,WeatherDisplay:10.37,2013-04-17 02:04:00,
2013-04-16 22:09:00,54.7,46.6,30.09,SSE,161,1.0,3.0,74,0.00,CLR,,0.00,WeatherDisplay:10.37,2013-04-17 02:09:00,
2013-04-16 22:14:00,54.7,46.6,30.06,SSW,193,1.0,3.0,74,0.00,CLR,,0.00,WeatherDisplay:10.37,2013-04-17 02:14:00,
2013-04-16 22:19:00,54.7,46.6,30.06,SW,222,2.0,3.0,74,0.00,CLR,,0.00,WeatherDisplay:10.37,2013-04-17 02:19:00,
2013-04-16 22:24:00,54.7,46.6,30.06,West,270,2.0,3.0,74,0.00,CLR,,0.00,WeatherDisplay:10.37,2013-04-17 02:24:00,
2013-04-16 22:29:00,54.5,46.4,30.09,West,265,1.0,2.0,74,0.00,CLR,,0.00,WeatherDisplay:10.37,2013-04-17 02:29:00,
2013-04-16 22:34:00,54.5,46.4,30.09,SW,222,1.0,3.0,74,0.00,CLR,,0.00,WeatherDisplay:10.37,2013-04-17 02:34:00,
2013-04-16 22:40:00,54.3,46.6,30.09,SSW,209,1.0,2.0,75,0.00,CLR,,0.00,WeatherDisplay:10.37,2013-04-17 02:40:00,
2013-04-16 22:49:00,54.1,46.4,30.06,South,182,1.0,2.0,75,0.00,CLR,,0.00,WeatherDisplay:10.37,2013-04-17 02:49:00,
2013-04-16 22:54:00,54.1,46.3,30.06,South,186,1.0,2.0,75,0.00,CLR,,0.00,WeatherDisplay:10.37,2013-04-17 02:54:00,
2013-04-16 22:59:00,54.0,46.2,30.06,SSW,198,1.0,2.0,75,0.00,CLR,,0.00,WeatherDisplay:10.37,2013-04-17 02:59:00,
2013-04-16 23:04:00,54.1,46.4,30.06,SSW,204,2.0,3.0,75,0.00,CLR,,0.00,WeatherDisplay:10.37,2013-04-17 03:04:00,
2013-04-16 23:10:00,54.1,46.4,30.06,South,191,2.0,3.0,75,0.00,CLR,,0.00,WeatherDisplay:10.37,2013-04-17 03:10:00,
2013-04-16 23:14:00,54.1,46.4,30.06,South,173,0.0,2.0,75,0.00,CLR,,0.00,WeatherDisplay:10.37,2013-04-17 03:14:00,
2013-04-16 23:20:00,54.1,46.4,30.06,SSW,199,1.0,3.0,75,0.00,CLR,,0.00,WeatherDisplay:10.37,2013-04-17 03:20:00,
2013-04-16 23:29:00,54.1,46.4,30.06,South,184,1.0,5.0,75,0.00,CLR,,0.00,WeatherDisplay:10.37,2013-04-17 03:29:00,
2013-04-16 23:34:00,54.1,46.7,30.06,South,170,2.0,3.0,76,0.00,CLR,,0.00,WeatherDisplay:10.37,2013-04-17 03:34:00,
2013-04-16 23:39:00,54.1,46.7,30.06,SSW,199,0.0,3.0,76,0.00,CLR,,0.00,WeatherDisplay:10.37,2013-04-17 03:39:00,
2013-04-16 23:44:00,54.1,46.7,30.06,SW,226,6.0,7.0,76,0.00,CLR,,0.00,WeatherDisplay:10.37,2013-04-17 03:44:00,
2013-04-16 23:49:00,54.1,46.7,30.06,SW,236,2.0,7.0,76,0.00,CLR,,0.00,WeatherDisplay:10.37,2013-04-17 03:49:00,
2013-04-16 23:54:00,54.1,46.7,30.06,SSW,200,3.0,6.0,76,0.00,CLR,,0.00,WeatherDisplay:10.37,2013-04-17 03:54:00,
2013-04-16 23:59:00,54.1,47.1,30.06,WSW,239,1.0,3.0,77,0.00,CLR,,0.00,WeatherDisplay:10.37,2013-04-17 03:59:00,